Regional Weather Roundup
Issued by NWS

Home | Current Version | Previous Version | Graphics & Text | Print | Product List | Glossary On
Versions: 1 2 3 4 5 6 7 8 9 10 11 12 13 14 15 16 17 18 19 20 21 22 23 24 25 26 27 28 29 30 31 32 33 34 35 36 37 38 39 40 41 42 43 44 45 46 47 48 49 50
000
ASUS43 KMKX 181621
RWRWI

WISCONSIN REGIONAL WEATHER ROUNDUP
NATIONAL WEATHER SERVICE MILWAUKEE/SULLIVAN WI
1000 AM CST THU DEC 18 2014

NOTE: "FAIR" INDICATES FEW OR NO CLOUDS BELOW 12,000 FEET WITH NO
SIGNIFICANT WEATHER AND/OR OBSTRUCTIONS TO VISIBILITY.

WIZ001-002-006>008-014>016-023>028-181700-
NORTHWEST WISCONSIN

CITY           SKY/WX    TMP DP  RH WIND       PRES   REMARKS
SUPERIOR ARPT  CLOUDY    21  19  92 SW6       30.32S WCI  14
ASHLAND        MOSUNNY   23  17  78 E3        30.32R
HAYWARD        PTSUNNY   22  16  78 NE6       30.28R WCI  14
SIREN          CLOUDY    21  18  88 CALM      30.30S
CUMBERLAND     CLOUDY    21  19  93 SE3       30.28R
RICE LAKE      CLOUDY    23  19  85 SE5       30.30S WCI  17
CHETEK         CLOUDY    22  19  89 CALM      30.30R
LADYSMITH      CLOUDY    24  20  85 NE5       30.29S WCI  18
EAU CLAIRE     CLOUDY    23  17  78 E5        30.30R WCI  17
MENOMONIE      CLOUDY    24  19  83 E5        30.31S WCI  18
NEW RICHMOND   CLOUDY    22  19  89 S5        30.30S WCI  16
OSCEOLA        CLOUDY    22  19  86 SE3       30.33S
$$

WIZ003>005-009-010-017-018-181700-
NORTH CENTRAL WISCONSIN

CITY           SKY/WX    TMP DP  RH WIND       PRES   REMARKS
MANITOWISH WTR CLOUDY    20  16  83 NE6       30.25R WCI  12
ARBOR VITAE    CLOUDY    22  18  83 E6        30.25S WCI  15
WOODRUFF       CLOUDY    22  18  83 E6        30.25S WCI  15
RHINELANDER    CLOUDY    20  16  84 E7        30.25S WCI  11
EAGLE RIVER    CLOUDY    21  15  76 CALM      30.25R
LAND O LAKES   PTSUNNY   22  17  83 E6        30.26R WCI  14
PHILLIPS       CLOUDY    19  16  88 E7        30.26S WCI  10
TOMAHAWK       CLOUDY    21  17  84 CALM      30.27R
MEDFORD        CLOUDY    22  18  84 E3        30.26S
MERRILL        CLOUDY    22  19  85 E6        30.28R WCI  15
$$

WIZ029-030-035-036-043>047-181700-
CENTRAL WISCONSIN

CITY           SKY/WX    TMP DP  RH WIND       PRES   REMARKS
WAUSAU         CLOUDY    24  19  81 E7        30.27R WCI  16
MOSINEE        CLOUDY    25  21  86 NE3       30.28R
MARSHFIELD     CLOUDY    24  19  81 E5        30.27R WCI  18
STEVENS POINT  CLOUDY    23  18  81 N3        30.29R
WAUPACA        CLOUDY    28  21  75 NE7       30.30R WCI  21
WAUTOMA        CLOUDY    26  21  81 CALM      30.30R
WISC RAPIDS    CLOUDY    25  19  78 CALM      30.30R
CAMP DOUGLAS   FLURRIES  23  23 100 NW2       30.30R
$$

WIZ011>013-019>022-031-037>040-048>050-181700-
NORTHEAST WISCONSIN

CITY           SKY/WX    TMP DP  RH WIND       PRES   REMARKS
ANTIGO         CLOUDY    23  18  79 CALM      30.26R
SHAWANO        CLOUDY    28  20  72 NE7       30.30S WCI  21
OCONTO         CLOUDY    26  20  77 NE6       30.30R WCI  19
STURGEON BAY   CLOUDY    25  18  74 N9        30.29S WCI  15
GREEN BAY      CLOUDY    28  21  75 N9        30.29R WCI  19
MANITOWOC      CLOUDY    28  23  81 NW6       30.29R WCI  22
APPLETON       CLOUDY    27  19  74 NE6       30.29R WCI  20
CLINTONVILLE   CLOUDY    28  19  69 CALM      30.30R
OSHKOSH        CLOUDY    27  21  78 N10       30.29R HAZE    WCI  17
$$

WIZ032>034-041-042-053>061-181700-
SOUTHWEST WISCONSIN

CITY           SKY/WX    TMP DP  RH WIND       PRES   REMARKS
LA CROSSE      CLOUDY    24  17  74 CALM      30.32R
SPARTA         CLOUDY    22  18  83 CALM      30.32S
VIROQUA        CLOUDY    22  19  90 E7        30.27S WCI  13
BOSCOBEL       CLOUDY    21  17  84 CALM      30.33R
PRAIRIE DU CHI PTSUNNY   20  15  79 CALM      30.33R
PLATTEVILLE    MOSUNNY   20  17  86 CALM      30.31R
$$

WIZ056-057-062-063-064-067-068-181700-
SOUTH CENTRAL WISCONSIN

CITY           SKY/WX    TMP DP  RH WIND       PRES   REMARKS
REEDSBURG      CLOUDY    23  18  82 CALM      30.29S
BARABOO/DELLS  CLOUDY    23  18  82 CALM      30.29S
LONE ROCK      NOT AVBL
MINERAL POINT  CLOUDY    23  19  86 CALM      30.28S
MADISON        FLURRIES  24  19  81 CALM      30.30R
MIDDLETON      CLOUDY    25  20  81 CALM      30.30R
WATERTOWN      CLOUDY    24  22  91 CALM      30.29R
MONROE         CLOUDY    23  19  86 CALM      30.28S
JANESVILLE     CLOUDY    23  19  86 W6        30.30R WCI  16
$$

WIZ051-052-058>065-066-070>072-181700-
SOUTHEAST WISCONSIN

CITY           SKY/WX    TMP DP  RH WIND       PRES   REMARKS
MILWAUKEE      CLOUDY    26  20  77 NW8       30.28S WCI  18
WAUKESHA       CLOUDY    21  19  93 W5        30.30R FOG     WCI  15
MILWAUKEE/TIMM CLOUDY    25  21  86 W6        30.29R WCI  18
RACINE         CLOUDY    23  18  81 W6        30.30R WCI  16
BURLINGTON     CLOUDY    22  18  85 CALM      30.29S
KENOSHA        PTSUNNY   24  19  81 W10       30.29R WCI  14
FOND DU LAC    CLOUDY    27  22  81 N6        30.29R WCI  20
SHEBOYGAN      CLOUDY    27  21  78 N8        30.28R WCI  19
WEST BEND      CLOUDY    27  23  86 NW5       30.27S FOG     WCI  21
JUNEAU         CLOUDY    25  21  86 NW3       30.29S
$$

LSZ147-162-181700-
LAKE SUPERIOR

STATION/POSITION TIME  TEMP    WIND        PRES    WAVE
                       AIR SEA DIR/SP/G            HT/PER
                 (UTC) (F)     (DEG/KT/KT) (MB)    (FT/S)
DEVILS ISLAND    1600   28      60/ 11/ 13 1027.7F
PORT WING        1540   26     160/  2/  2 1026.8R
SAXON HARBOR     1500   22     150/  1/  4 1026.4
$$

LMZ867-665-643>646-181700-
LAKE MICHIGAN

STATION/POSITION TIME  TEMP    WIND        PRES    WAVE
                       AIR SEA DIR/SP/G            HT/PER
                 (UTC) (F)     (DEG/KT/KT) (MB)    (FT/S)
CHAMBERS ISLAND  1500   27      20/ 13/ 17 1025.4S
NORTHPORT PIER   1500   25     360/  9/ 11 1025.1S
SISTER BAY       1513           40/  3/  8   N/A
ALGOMA LAKESHORE 1514           20/  9/ 11   N/A
KEWAUNEE LAKESHO 1500   27      10/  9/ 15 1023.8R
SHEBOYGAN LAKESH 1600   28 34  340/ 10/ 13 1026.5R
PORT WASHINGTON  1540   27     300/  5/  7 1026.1R
MILWAUKEE LAKESH 1600   26     300/  6/  9   N/A
KENOSHA   LAKESH 1600   23     270/ 10/ 11 1025.4S
$$

TC  - TEMPERATURE IN CELSIUS
VSB - VISIBILITY IN STATUTE MILES
WCI - WIND CHILL INDEX
HX  - HEAT INDEX




USA.gov is the U.S. government's official web portal to all federal, state and local government web resources and services.